TimeEST,TemperatureF,Dew PointF,Humidity,Sea Level PressureIn,VisibilityMPH,Wind Direction,Wind SpeedMPH,Gust SpeedMPH,PrecipitationIn,Events,Conditions,WindDirDegrees,DateUTC
12:54 AM,37.9,30.0,73,30.23,10.0,Calm,Calm,-,N/A,,Clear,0,2013-01-07 05:54:00
1:54 AM,32.0,28.0,85,30.23,10.0,Calm,Calm,-,N/A,,Clear,0,2013-01-07 06:54:00
2:54 AM,30.0,27.0,88,30.25,10.0,Calm,Calm,-,N/A,,Clear,0,2013-01-07 07:54:00
3:54 AM,28.9,26.1,89,30.27,10.0,Calm,Calm,-,N/A,,Clear,0,2013-01-07 08:54:00
4:54 AM,30.0,26.1,85,30.29,10.0,Calm,Calm,-,N/A,,Clear,0,2013-01-07 09:54:00
5:54 AM,28.0,26.1,92,30.31,10.0,Calm,Calm,-,N/A,,Clear,0,2013-01-07 10:54:00
6:54 AM,28.0,25.0,88,30.34,10.0,Calm,Calm,-,N/A,,Clear,0,2013-01-07 11:54:00
7:54 AM,30.9,28.0,89,30.37,10.0,North,3.5,-,N/A,,Clear,350,2013-01-07 12:54:00
8:54 AM,39.0,32.0,76,30.40,10.0,North,6.9,-,N/A,,Clear,10,2013-01-07 13:54:00
9:54 AM,44.1,28.9,55,30.42,10.0,NNE,8.1,-,N/A,,Clear,20,2013-01-07 14:54:00
10:54 AM,46.0,28.0,50,30.44,10.0,ENE,8.1,-,N/A,,Clear,60,2013-01-07 15:54:00
11:54 AM,48.9,28.0,44,30.42,10.0,NNE,8.1,-,N/A,,Clear,30,2013-01-07 16:54:00
12:54 PM,50.0,28.0,43,30.39,10.0,Variable,3.5,-,N/A,,Clear,0,2013-01-07 17:54:00
2:54 PM,52.0,28.0,40,30.38,10.0,East,4.6,-,N/A,,Clear,80,2013-01-07 19:54:00
3:54 PM,52.0,28.0,40,30.39,10.0,Variable,3.5,-,N/A,,Clear,0,2013-01-07 20:54:00
4:54 PM,51.1,28.9,43,30.40,10.0,East,4.6,-,N/A,,Clear,100,2013-01-07 21:54:00
6:54 PM,37.9,28.9,70,30.43,10.0,Calm,Calm,-,N/A,,Clear,0,2013-01-07 23:54:00
7:54 PM,37.9,30.0,73,30.42,10.0,Calm,Calm,-,N/A,,Clear,0,2013-01-08 00:54:00
8:54 PM,35.1,30.0,82,30.43,10.0,Calm,Calm,-,N/A,,Clear,0,2013-01-08 01:54:00
9:54 PM,35.1,30.0,82,30.43,10.0,Calm,Calm,-,N/A,,Clear,0,2013-01-08 02:54:00
10:54 PM,33.1,28.9,85,30.43,8.0,Calm,Calm,-,N/A,,Clear,0,2013-01-08 03:54:00
11:54 PM,30.9,28.9,92,30.43,7.0,Calm,Calm,-,N/A,,Clear,0,2013-01-08 04:54:00